Weather History for Granite Falls, MN

Change the Weather History Date:

Saturday, October 13, 2012

  Actual Average (KMVE) Record (KMVE)
Temperature  
Mean Temperature 50 °F -  
Max Temperature 63 °F 61 °F 85 °F (1956)
Min Temperature 37 °F 39 °F 21 °F (1979)
Degree Days  
Heating Degree Days 15    
Moisture  
Dew Point 44 °F    
Average Humidity 73    
Maximum Humidity 93    
Minimum Humidity 29    
Precipitation  
Precipitation 0.00 in - - ()
Sea Level Pressure  
Sea Level Pressure 29.75 in    
Wind  
Wind Speed 9 mph (SE)    
Max Wind Speed 20 mph    
Max Gust Speed 25 mph    
Visibility 7 miles    
Events      
Averages and records for this station are not official NWS values.
T = Trace of Precipitation, MM = Missing Value Source: NWS Daily Summary

Daily Weather History Graph

Daily Weather History Graph

Search for Another Location

Airport:

Trip Planner

Search our weather history database for the weather conditions in past years. The results will help you decide how hot, cold, wet, or windy it might be!

Date:

Astronomy

Oct. 13, 2012 Rise Set
Actual Time 7:35 AM CDT 6:40 PM CDT
Civil Twilight 7:06 AM CDT 7:09 PM CDT
Nautical Twilight 6:32 AM CDT 7:43 PM CDT
Astronomical Twilight 5:58 AM CDT 8:17 PM CDT
Moon 5:22 AM CDT (10/13) 5:26 PM CDT (10/13)
Length of Visible Light 12h 03m
Length of Day
11h 04m
Waning Crescent, 5% of the Moon is Illuminated
Oct 13
Waning Crescent
Oct 15
New
Oct 21
First Quarter
Oct 29
Full
Nov 6
Last Quarter

Hourly Weather History & Observations

Time (CDT) Temp. Windchill Dew Point Humidity Pressure Visibility Wind Dir Wind Speed Gust Speed Precip Events Conditions
12:12 AM 52.3 °F - 20.5 °F 29% 29.93 in 10.0 mi SSE 19.6 mph 25.3 mph N/A   Overcast
12:32 AM 52.3 °F - 22.1 °F 31% 29.93 in 10.0 mi SSE 13.8 mph 19.6 mph N/A   Overcast
1:11 AM 52.3 °F - 29.1 °F 41% 29.91 in 10.0 mi South 10.4 mph - N/A   Overcast
2:12 AM 52.7 °F - 39.4 °F 61% 29.89 in 10.0 mi South 13.8 mph 19.6 mph N/A   Overcast
2:32 AM 52.3 °F - 39.7 °F 62% 29.88 in 10.0 mi South 12.7 mph - N/A   Overcast
3:32 AM 49.3 °F - 40.3 °F 71% 29.82 in 10.0 mi SSE 12.7 mph - N/A   Clear
3:52 AM 48.7 °F - 40.8 °F 74% 29.83 in 10.0 mi SSE 12.7 mph - N/A   Clear
4:12 AM 48.7 °F - 41.9 °F 77% 29.83 in 10.0 mi SSE 10.4 mph - N/A   Clear
4:33 AM 48.7 °F - 41.9 °F 77% 29.82 in 10.0 mi SSE 8.1 mph - N/A   Clear
5:32 AM 48.2 °F - 41.9 °F 79% 29.80 in 10.0 mi SSE 9.2 mph - N/A   Clear
5:52 AM 47.3 °F - 41.0 °F 79% 29.78 in 7.0 mi SSE 8.1 mph - N/A   Clear
6:12 AM 47.3 °F - 41.0 °F 79% 29.78 in 7.0 mi SSE 8.1 mph - N/A   Clear
6:32 AM 47.3 °F - 41.0 °F 79% 29.79 in 10.0 mi SE 4.6 mph - N/A   Clear
6:52 AM 47.3 °F - 41.2 °F 79% 29.78 in 10.0 mi ESE 5.8 mph - N/A   Clear
7:12 AM 47.3 °F - 41.0 °F 79% 29.78 in 7.0 mi SE 5.8 mph - N/A   Clear
7:52 AM 48.7 °F - 43.2 °F 81% 29.75 in 7.0 mi SE 8.1 mph - N/A   Mostly Cloudy
8:12 AM 50.0 °F - 44.8 °F 82% 29.74 in 7.0 mi SSE 12.7 mph - N/A   Overcast
8:52 AM 50.5 °F - 45.9 °F 84% 29.73 in 5.0 mi SSE 11.5 mph - N/A   Haze
9:12 AM 51.4 °F - 46.0 °F 82% 29.73 in 5.0 mi SSE 12.7 mph - N/A   Haze
9:32 AM 52.2 °F - 46.6 °F 81% 29.73 in 7.0 mi SSE 11.5 mph - N/A   Overcast
9:52 AM 52.7 °F - 46.4 °F 79% 29.73 in 7.0 mi SSE 10.4 mph - N/A   Overcast
10:12 AM 53.2 °F - 46.9 °F 79% 29.73 in 7.0 mi South 11.5 mph - N/A   Overcast
10:52 AM 53.4 °F - 47.3 °F 80% 29.72 in 7.0 mi South 9.2 mph - N/A   Overcast
11:32 AM 54.7 °F - 48.2 °F 79% 29.72 in 7.0 mi South 6.9 mph - N/A   Overcast
11:51 AM 54.5 °F - 48.2 °F 79% 29.72 in 7.0 mi SSE 4.6 mph - N/A   Overcast
12:12 PM 54.9 °F - 48.4 °F 79% 29.72 in 5.0 mi Calm Calm - N/A   Haze
12:32 PM 55.0 °F - 48.2 °F 78% 29.71 in 7.0 mi SE 4.6 mph - N/A   Overcast
12:52 PM 54.7 °F - 48.2 °F 79% 29.71 in 5.0 mi ESE 4.6 mph - N/A   Haze
1:12 PM 55.8 °F - 48.7 °F 77% 29.70 in 5.0 mi SE 5.8 mph - N/A   Haze
1:32 PM 57.6 °F - 48.9 °F 73% 29.70 in 7.0 mi SE 3.5 mph - N/A   Overcast
1:52 PM 57.7 °F - 48.6 °F 71% 29.69 in 7.0 mi Calm Calm - N/A   Overcast
2:12 PM 58.1 °F - 48.4 °F 70% 29.68 in 7.0 mi Calm Calm - N/A   Mostly Cloudy
2:32 PM 59.0 °F - 48.2 °F 67% 29.68 in 7.0 mi Calm Calm - N/A   Mostly Cloudy
2:52 PM 60.8 °F - 48.6 °F 64% 29.68 in 7.0 mi West 4.6 mph - N/A   Mostly Cloudy
3:13 PM 60.8 °F - 48.6 °F 64% 29.68 in 7.0 mi NW 4.6 mph - N/A   Overcast
3:32 PM 61.5 °F - 48.2 °F 62% 29.69 in 7.0 mi West 3.5 mph - N/A   Mostly Cloudy
3:52 PM 60.8 °F - 48.4 °F 64% 29.68 in 7.0 mi Calm Calm - N/A   Scattered Clouds
4:12 PM 63.0 °F - 48.6 °F 59% 29.68 in 5.0 mi Calm Calm - N/A   Haze
4:52 PM 62.4 °F - 48.2 °F 60% 29.67 in 7.0 mi NNW 3.5 mph - N/A   Clear
5:12 PM 61.7 °F - 47.8 °F 60% 29.69 in 7.0 mi NW 4.6 mph - N/A   Clear
5:32 PM 61.7 °F - 48.0 °F 61% 29.69 in 7.0 mi Calm Calm - N/A   Clear
5:52 PM 60.3 °F - 47.8 °F 64% 29.69 in 7.0 mi North 3.5 mph - N/A   Clear
6:12 PM 58.6 °F - 47.1 °F 66% 29.69 in 7.0 mi NNE 3.5 mph - N/A   Clear
6:32 PM 56.8 °F - 46.4 °F 68% 29.71 in 7.0 mi North 4.6 mph - N/A   Clear
8:12 PM 48.4 °F - 43.3 °F 83% 29.75 in 7.0 mi NNE 3.5 mph - N/A   Clear
8:32 PM 48.2 °F - 43.9 °F 85% 29.76 in 7.0 mi NE 4.6 mph - N/A   Clear
9:12 PM 48.0 °F - 43.7 °F 85% 29.76 in 7.0 mi East 3.5 mph - N/A   Clear
9:32 PM 49.3 °F - 44.6 °F 84% 29.76 in 7.0 mi ENE 3.5 mph - N/A   Clear
9:52 PM 46.9 °F - 42.8 °F 86% 29.76 in 7.0 mi ENE 3.5 mph - N/A   Clear
10:12 PM 46.0 °F 43.9 °F 42.1 °F 86% 29.76 in 5.0 mi NE 4.6 mph - N/A   Clear
10:32 PM 43.7 °F 41.1 °F 41.4 °F 91% 29.75 in 5.0 mi NNE 4.6 mph - N/A   Clear
10:52 PM 38.5 °F - 36.0 °F 91% 29.77 in 4.0 mi Calm Calm - N/A   Clear
11:11 PM 37.9 °F - 35.8 °F 92% 29.77 in 4.0 mi Calm Calm - N/A   Clear
11:32 PM 38.5 °F - 36.7 °F 93% 29.76 in 5.0 mi Calm Calm - N/A   Clear